Retour au catalogue

SCOUT B DEB

LostUNKNOWN
NORAD 28798·DEBRIS·🇺🇸 United States

Lancé Aug 10, 1965 depuis Wallops Flight Facility

Loading…

Prochains Passages (prochaines 24 heures)

TLE

PériméSource: Space-Track

Époque: Oct 5, 2023, 04:25 UTC

1 28798U 65063H   23278.18419395  .00001084  00000-0  73342-2 0  9990
2 28798  69.2272 252.3187 0716035  34.3041 342.8037 11.92620049805755

Suivez SCOUT B DEB en temps réel avec AllMySat

Download on the App Store